Time,TemperatureF,DewpointF,PressureIn,WindDirection,WindDirectionDegrees,WindSpeedMPH,WindSpeedGustMPH,Humidity,HourlyPrecipIn,Conditions,Clouds,dailyrainin,SolarRadiationWatts/m^2,SoftwareType,DateUTC
2013-07-28 00:02:00,53.0,50.0,-100.00,WNW,295,0.0,10.0,89,0.00,,,0.00,1.000000,,2013-07-28 07:02:00,
2013-07-28 00:12:00,53.0,50.0,-100.00,WNW,295,0.0,10.0,89,0.00,,,0.00,1.000000,,2013-07-28 07:12:00,
2013-07-28 00:22:00,53.0,50.0,-100.00,WNW,295,0.0,10.0,89,0.00,,,0.00,1.000000,,2013-07-28 07:22:00,
2013-07-28 00:32:00,53.0,50.0,-100.00,WNW,295,0.0,10.0,89,0.00,,,0.00,1.000000,,2013-07-28 07:32:00,
2013-07-28 00:33:00,53.0,51.0,-100.00,NW,307,0.0,0.0,93,0.00,,,0.00,1.000000,,2013-07-28 07:33:00,
2013-07-28 01:02:00,53.0,51.0,-100.00,NW,307,0.0,0.0,93,0.00,,,0.00,1.000000,,2013-07-28 08:02:00,
2013-07-28 01:12:00,53.0,51.0,-100.00,NW,307,0.0,0.0,93,0.00,,,0.00,1.000000,,2013-07-28 08:12:00,
2013-07-28 01:22:00,53.0,51.0,-100.00,NW,307,0.0,0.0,93,0.00,,,0.00,1.000000,,2013-07-28 08:22:00,
2013-07-28 01:53:00,52.0,50.0,-100.00,WNW,284,0.0,4.0,94,0.00,,,0.00,1.000000,,2013-07-28 08:53:00,
2013-07-28 02:02:00,52.0,50.0,-100.00,WNW,284,0.0,4.0,94,0.00,,,0.00,1.000000,,2013-07-28 09:02:00,
2013-07-28 02:12:00,52.0,50.0,-100.00,WNW,284,0.0,4.0,94,0.00,,,0.00,1.000000,,2013-07-28 09:12:00,
2013-07-28 02:22:00,52.0,50.0,-100.00,WNW,284,0.0,4.0,94,0.00,,,0.00,1.000000,,2013-07-28 09:22:00,
2013-07-28 02:32:00,52.0,50.0,-100.00,WNW,284,0.0,4.0,94,0.00,,,0.00,1.000000,,2013-07-28 09:32:00,
2013-07-28 02:53:00,51.0,49.0,-100.00,WNW,285,1.0,9.0,94,0.00,,,0.00,1.000000,,2013-07-28 09:53:00,
2013-07-28 03:02:00,51.0,49.0,-100.00,WNW,285,1.0,9.0,94,0.00,,,0.00,1.000000,,2013-07-28 10:02:00,
2013-07-28 03:12:00,51.0,49.0,-100.00,WNW,285,1.0,9.0,94,0.00,,,0.00,1.000000,,2013-07-28 10:12:00,
2013-07-28 03:22:00,51.0,49.0,-100.00,WNW,285,1.0,9.0,94,0.00,,,0.00,1.000000,,2013-07-28 10:22:00,
2013-07-28 03:32:00,51.0,49.0,-100.00,WNW,285,1.0,9.0,94,0.00,,,0.00,1.000000,,2013-07-28 10:32:00,
2013-07-28 03:33:00,51.0,50.0,-100.00,WNW,286,0.0,9.0,95,0.00,,,0.00,0.000000,,2013-07-28 10:33:00,
2013-07-28 04:02:00,51.0,50.0,-100.00,WNW,286,0.0,9.0,95,0.00,,,0.00,0.000000,,2013-07-28 11:02:00,
2013-07-28 04:12:00,51.0,50.0,-100.00,WNW,286,0.0,9.0,95,0.00,,,0.00,0.000000,,2013-07-28 11:12:00,
2013-07-28 04:22:00,51.0,50.0,-100.00,WNW,286,0.0,9.0,95,0.00,,,0.00,0.000000,,2013-07-28 11:22:00,
2013-07-28 04:54:00,51.0,50.0,-100.00,West,272,0.0,0.0,96,0.00,,,0.00,1.000000,,2013-07-28 11:54:00,
2013-07-28 05:02:00,51.0,50.0,-100.00,West,272,0.0,0.0,96,0.00,,,0.00,1.000000,,2013-07-28 12:02:00,
2013-07-28 05:12:00,51.0,50.0,-100.00,West,272,0.0,0.0,96,0.00,,,0.00,1.000000,,2013-07-28 12:12:00,
2013-07-28 05:22:00,51.0,50.0,-100.00,West,272,0.0,0.0,96,0.00,,,0.00,1.000000,,2013-07-28 12:22:00,
2013-07-28 05:32:00,51.0,50.0,-100.00,West,272,0.0,0.0,96,0.00,,,0.00,1.000000,,2013-07-28 12:32:00,
2013-07-28 05:53:00,51.0,50.0,-100.00,West,281,0.0,0.0,96,0.00,,,0.00,0.000000,,2013-07-28 12:53:00,
2013-07-28 06:02:00,51.0,50.0,-100.00,West,281,0.0,0.0,96,0.00,,,0.00,0.000000,,2013-07-28 13:02:00,
2013-07-28 06:12:00,51.0,50.0,-100.00,West,281,0.0,0.0,96,0.00,,,0.00,0.000000,,2013-07-28 13:12:00,
2013-07-28 06:22:00,51.0,50.0,-100.00,West,281,0.0,0.0,96,0.00,,,0.00,0.000000,,2013-07-28 13:22:00,
2013-07-28 06:32:00,51.0,50.0,-100.00,West,281,0.0,0.0,96,0.00,,,0.00,0.000000,,2013-07-28 13:32:00,
2013-07-28 06:33:00,51.0,50.0,-100.00,WNW,282,0.0,0.0,96,0.00,,,0.00,2.000000,,2013-07-28 13:33:00,
2013-07-28 07:02:00,51.0,50.0,-100.00,WNW,282,0.0,0.0,96,0.00,,,0.00,2.000000,,2013-07-28 14:02:00,
2013-07-28 07:12:00,51.0,50.0,-100.00,WNW,282,0.0,0.0,96,0.00,,,0.00,2.000000,,2013-07-28 14:12:00,
2013-07-28 07:22:00,51.0,50.0,-100.00,WNW,282,0.0,0.0,96,0.00,,,0.00,2.000000,,2013-07-28 14:22:00,
2013-07-28 08:02:00,51.0,50.0,-100.00,West,267,0.0,0.0,96,0.00,,,0.00,36.000000,,2013-07-28 15:02:00,
2013-07-28 08:12:00,51.0,50.0,-100.00,West,267,0.0,0.0,96,0.00,,,0.00,36.000000,,2013-07-28 15:12:00,
2013-07-28 08:22:00,51.0,50.0,-100.00,West,267,0.0,0.0,96,0.00,,,0.00,36.000000,,2013-07-28 15:22:00,
2013-07-28 08:32:00,51.0,50.0,-100.00,West,267,0.0,0.0,96,0.00,,,0.00,36.000000,,2013-07-28 15:32:00,
2013-07-28 08:33:00,52.0,51.0,-100.00,WSW,253,0.0,0.0,96,0.00,,,0.00,100.000000,,2013-07-28 15:33:00,
2013-07-28 09:02:00,52.0,51.0,-100.00,WSW,253,0.0,0.0,96,0.00,,,0.00,100.000000,,2013-07-28 16:02:00,
2013-07-28 09:12:00,52.0,51.0,-100.00,WSW,253,0.0,0.0,96,0.00,,,0.00,100.000000,,2013-07-28 16:12:00,
2013-07-28 09:22:00,52.0,51.0,-100.00,WSW,253,0.0,0.0,96,0.00,,,0.00,100.000000,,2013-07-28 16:22:00,
2013-07-28 10:02:00,58.0,56.0,-100.00,SSW,211,0.0,0.0,94,0.00,,,0.00,315.000000,,2013-07-28 17:02:00,
2013-07-28 10:12:00,58.0,56.0,-100.00,SSW,211,0.0,0.0,94,0.00,,,0.00,315.000000,,2013-07-28 17:12:00,
2013-07-28 10:22:00,58.0,56.0,-100.00,SSW,211,0.0,0.0,94,0.00,,,0.00,315.000000,,2013-07-28 17:22:00,
2013-07-28 10:32:00,58.0,56.0,-100.00,SSW,211,0.0,0.0,94,0.00,,,0.00,315.000000,,2013-07-28 17:32:00,
2013-07-28 11:02:00,63.0,51.0,-100.00,SSE,151,0.0,8.0,65,0.00,,,0.00,643.000000,,2013-07-28 18:02:00,
2013-07-28 11:12:00,63.0,51.0,-100.00,SSE,151,0.0,8.0,65,0.00,,,0.00,643.000000,,2013-07-28 18:12:00,
2013-07-28 11:22:00,63.0,51.0,-100.00,SSE,151,0.0,8.0,65,0.00,,,0.00,643.000000,,2013-07-28 18:22:00,
2013-07-28 11:32:00,63.0,51.0,-100.00,SSE,151,0.0,8.0,65,0.00,,,0.00,643.000000,,2013-07-28 18:32:00,
2013-07-28 11:52:00,67.0,52.0,-100.00,SE,131,0.0,8.0,58,0.00,,,0.00,790.000000,,2013-07-28 18:52:00,
2013-07-28 12:02:00,67.0,52.0,-100.00,SE,131,0.0,8.0,58,0.00,,,0.00,790.000000,,2013-07-28 19:02:00,
2013-07-28 12:12:00,67.0,52.0,-100.00,SE,131,0.0,8.0,58,0.00,,,0.00,790.000000,,2013-07-28 19:12:00,
2013-07-28 12:22:00,67.0,52.0,-100.00,SE,131,0.0,8.0,58,0.00,,,0.00,790.000000,,2013-07-28 19:22:00,
2013-07-28 12:32:00,67.0,52.0,-100.00,SE,131,0.0,8.0,58,0.00,,,0.00,790.000000,,2013-07-28 19:32:00,
2013-07-28 12:52:00,70.0,52.0,-100.00,SE,124,0.0,6.0,52,0.00,,,0.00,897.000000,,2013-07-28 19:52:00,
2013-07-28 13:02:00,70.0,52.0,-100.00,SE,124,0.0,6.0,52,0.00,,,0.00,897.000000,,2013-07-28 20:02:00,
2013-07-28 13:12:00,70.0,52.0,-100.00,SE,124,0.0,6.0,52,0.00,,,0.00,897.000000,,2013-07-28 20:12:00,
2013-07-28 13:22:00,70.0,52.0,-100.00,SE,124,0.0,6.0,52,0.00,,,0.00,897.000000,,2013-07-28 20:22:00,
2013-07-28 13:32:00,70.0,52.0,-100.00,SE,124,0.0,6.0,52,0.00,,,0.00,897.000000,,2013-07-28 20:32:00,
2013-07-28 13:53:00,75.0,53.0,-100.00,SSE,160,0.0,8.0,46,0.00,,,0.00,950.000000,,2013-07-28 20:53:00,
2013-07-28 14:02:00,75.0,53.0,-100.00,SSE,160,0.0,8.0,46,0.00,,,0.00,950.000000,,2013-07-28 21:02:00,
2013-07-28 14:12:00,75.0,53.0,-100.00,SSE,160,0.0,8.0,46,0.00,,,0.00,950.000000,,2013-07-28 21:12:00,
2013-07-28 14:22:00,75.0,53.0,-100.00,SSE,160,0.0,8.0,46,0.00,,,0.00,950.000000,,2013-07-28 21:22:00,
2013-07-28 14:32:00,75.0,53.0,-100.00,SSE,160,0.0,8.0,46,0.00,,,0.00,950.000000,,2013-07-28 21:32:00,
2013-07-28 14:52:00,78.0,52.0,-100.00,SW,215,0.0,4.0,40,0.00,,,0.00,950.000000,,2013-07-28 21:52:00,
2013-07-28 15:01:00,78.0,52.0,-100.00,SW,215,0.0,4.0,40,0.00,,,0.00,950.000000,,2013-07-28 22:01:00,
2013-07-28 15:12:00,78.0,52.0,-100.00,SW,215,0.0,4.0,40,0.00,,,0.00,950.000000,,2013-07-28 22:12:00,
2013-07-28 15:22:00,78.0,52.0,-100.00,SW,215,0.0,4.0,40,0.00,,,0.00,950.000000,,2013-07-28 22:22:00,
2013-07-28 15:32:00,78.0,52.0,-100.00,SW,215,0.0,4.0,40,0.00,,,0.00,950.000000,,2013-07-28 22:32:00,
2013-07-28 16:03:00,74.0,49.0,-100.00,West,276,1.0,13.0,42,0.00,,,0.00,898.000000,,2013-07-28 23:03:00,
2013-07-28 16:12:00,74.0,49.0,-100.00,West,276,1.0,13.0,42,0.00,,,0.00,898.000000,,2013-07-28 23:12:00,
2013-07-28 16:22:00,74.0,49.0,-100.00,West,276,1.0,13.0,42,0.00,,,0.00,898.000000,,2013-07-28 23:22:00,
2013-07-28 16:32:00,74.0,49.0,-100.00,West,276,1.0,13.0,42,0.00,,,0.00,898.000000,,2013-07-28 23:32:00,
2013-07-28 16:53:00,72.0,48.0,-100.00,West,279,1.0,16.0,42,0.00,,,0.00,789.000000,,2013-07-28 23:53:00,
2013-07-28 17:02:00,72.0,48.0,-100.00,West,279,1.0,16.0,42,0.00,,,0.00,789.000000,,2013-07-29 00:02:00,
2013-07-28 17:12:00,72.0,48.0,-100.00,West,279,1.0,16.0,42,0.00,,,0.00,789.000000,,2013-07-29 00:12:00,
2013-07-28 17:22:00,72.0,48.0,-100.00,West,279,1.0,16.0,42,0.00,,,0.00,789.000000,,2013-07-29 00:22:00,
2013-07-28 17:32:00,72.0,48.0,-100.00,West,279,1.0,16.0,42,0.00,,,0.00,789.000000,,2013-07-29 00:32:00,
2013-07-28 18:02:00,66.0,48.0,-100.00,WNW,283,0.0,17.0,53,0.00,,,0.00,504.000000,,2013-07-29 01:02:00,
2013-07-28 18:12:00,66.0,48.0,-100.00,WNW,283,0.0,17.0,53,0.00,,,0.00,504.000000,,2013-07-29 01:12:00,
2013-07-28 18:33:00,62.0,47.0,-100.00,WNW,295,10.0,17.0,58,0.00,,,0.00,323.000000,,2013-07-29 01:33:00,
2013-07-28 19:00:00,62.0,47.0,-100.00,WNW,295,10.0,17.0,58,0.00,,,0.00,323.000000,,2013-07-29 02:00:00,
2013-07-28 19:12:00,62.0,47.0,-100.00,WNW,295,10.0,17.0,58,0.00,,,0.00,323.000000,,2013-07-29 02:12:00,
2013-07-28 19:24:00,62.0,47.0,-100.00,WNW,295,10.0,17.0,58,0.00,,,0.00,323.000000,,2013-07-29 02:24:00,
2013-07-28 19:33:00,55.0,47.0,-100.00,WNW,286,13.0,19.0,75,0.00,,,0.00,133.000000,,2013-07-29 02:33:00,
2013-07-28 20:03:00,55.0,47.0,-100.00,WNW,286,13.0,19.0,75,0.00,,,0.00,133.000000,,2013-07-29 03:03:00,
2013-07-28 20:14:00,55.0,47.0,-100.00,WNW,286,13.0,19.0,75,0.00,,,0.00,133.000000,,2013-07-29 03:14:00,
2013-07-28 20:22:00,55.0,47.0,-100.00,WNW,286,13.0,19.0,75,0.00,,,0.00,133.000000,,2013-07-29 03:22:00,
2013-07-28 21:02:00,52.0,47.0,-100.00,NW,314,0.0,13.0,82,0.00,,,0.00,24.000000,,2013-07-29 04:02:00,
2013-07-28 21:12:00,52.0,47.0,-100.00,NW,314,0.0,13.0,82,0.00,,,0.00,24.000000,,2013-07-29 04:12:00,
2013-07-28 21:22:00,52.0,47.0,-100.00,NW,314,0.0,13.0,82,0.00,,,0.00,24.000000,,2013-07-29 04:22:00,
2013-07-28 21:32:00,52.0,47.0,-100.00,NW,314,0.0,13.0,82,0.00,,,0.00,24.000000,,2013-07-29 04:32:00,
2013-07-28 22:02:00,52.0,46.0,-100.00,NNW,330,0.0,5.0,81,0.00,,,0.00,1.000000,,2013-07-29 05:02:00,
2013-07-28 22:12:00,52.0,46.0,-100.00,NNW,330,0.0,5.0,81,0.00,,,0.00,1.000000,,2013-07-29 05:12:00,
2013-07-28 22:22:00,52.0,46.0,-100.00,NNW,330,0.0,5.0,81,0.00,,,0.00,1.000000,,2013-07-29 05:22:00,
2013-07-28 22:32:00,52.0,46.0,-100.00,NNW,330,0.0,5.0,81,0.00,,,0.00,1.000000,,2013-07-29 05:32:00,
2013-07-28 22:53:00,50.0,46.0,-100.00,NW,308,0.0,0.0,86,0.00,,,0.00,1.000000,,2013-07-29 05:53:00,
2013-07-28 23:02:00,50.0,46.0,-100.00,NW,308,0.0,0.0,86,0.00,,,0.00,1.000000,,2013-07-29 06:02:00,
2013-07-28 23:12:00,50.0,46.0,-100.00,NW,308,0.0,0.0,86,0.00,,,0.00,1.000000,,2013-07-29 06:12:00,
2013-07-28 23:22:00,50.0,46.0,-100.00,NW,308,0.0,0.0,86,0.00,,,0.00,1.000000,,2013-07-29 06:22:00,
2013-07-28 23:32:00,50.0,46.0,-100.00,NW,308,0.0,0.0,86,0.00,,,0.00,1.000000,,2013-07-29 06:32:00,
2013-07-28 23:33:00,51.0,47.0,-100.00,NNW,334,0.0,0.0,85,0.00,,,0.00,1.000000,,2013-07-29 06:33:00,